STARLINK-1716, 46672

Orbit data source: Space-Track

STARLINK-1716, 46672 is a payload satellite owned by SpaceX/Seattle (US) in LEO that was launched on Sun, 18 Oct 2020 UTC via an FALCON 9 launch vehicle from the Air Force Eastern Test Range (AFETR). Payload-class satellites include a variety of spacecraft equipped with specific instruments for various scientific and technological missions. These include communications satellites like Starlink; space stations such as the ISS; scientific satellites like the Hubble; Earth observation satellites from companies like Planet Labs, Umbra, and HawkEye 360; GPS; miniature CubeSats for education and research; and military/defense satellites.

Not visible in the next 10 days
Identifier
46672, 2020-073C
Orbit
LEO
Country
Flag of USUS
Related business
Manufacturer
SpaceX/Seattle
Mission
Partially operational Commercial Communications
Bus & Motor
STARLINK, Unknown motor
Mass
260 kg wet, ~248 kg dry
Launch date (UTC)
2020-10-18 (6 years ago)
Launch vehicle
FALCON 9
Launch site
Air Force Eastern Test Range (AFETR)
Object type
Payload
Rocket body
Debris
Shape & HBR
Box + 1 Pan, 10.1 m
Radar Cross Section
13.562 m², Large (>1 m²)

Expand to show TLE details & history
Last TLE update: 5 hours ago

TLE from 5 hours ago
0 STARLINK-1716
1 46672U 20073C   26168.96071682  .00514405  12998-3  87239-3 0  9992
2 46672  53.0322  59.6219 0006644 242.2829 117.7528 16.02058187313537
Epoch: 2026-06-17T23:03Z
TLE epoch observation values (Epoch: 2026-06-17T23:03:25.933Z)
Latitude
0.00003°
Longitude
167.55297°
Altitude
271.692 km
Speed
7.744 km/s
True Right ascension
03h 58m 29s
True Declination
0° 00' 00"
Sunlit
Object was in daylight at epoch
Visualization orbit readout
Latitude
Unknown
Longitude
Unknown
Altitude
Unknown
Speed
Unknown
Apparent Right ascension
Unknown
Apparent Declination
Unknown
Sunlit
N/A
Visualization observer readout
Local Sidereal Time
14:38:03
Azimuth
Unknown
Elevation
Unknown
Doppler factor
Unknown
Orbital elements
Apogee altitude
273.422 km
Perigee altitude
264.589 km
Semi-major axis
6,647.142 km
Eccentricity
0.00066
Inclination
53.0322°
RAAN
59.6219°
Arg. of periapsis
242.2829°
True anomaly
117.82015°
Mean anomaly
117.7528°
Eccentric anomaly
117.78648°
Mean motion
4.00489 °/min
Orbital period
89.89 mins
BSTAR
0.00087239
Loading maneuver chart data...
Computing Atmospheric mass density...

Documentation

Showing up to 5 results
|